Flag for Russia Weather past 2 weeks in Kaliningrad, Russia

Now
66 °F

Partly sunny.


Feels Like: 66 °F
Forecast: 61 / 73 °F
Wind: 17 mph from West

Location: Kaliningrad/Khrabrovo Airport

Current Time: Jul 7, 2015 at 9:26:51 AM

Latest Report: Jul 7, 2015 at 9:00 AM


Visibility: N/A

Pressure: 29.92 "Hg

Humidity: 64%

Dew point: 54 °F

Location of KaliningradLocation

Historic Weather in Kaliningrad — Graph

°F

Kaliningrad temperature yesterday

Maximum temperature yesterday: 75 °F (at 7:30 AM)
Minimum temperature yesterday: 61 °F (at 2:00 AM)
Average temperature yesterday: 67 °F

Past Weeks' High & Low Weather Summary

 TemperatureHumidityPressure
High90 °F (Jul 5, 1:00 PM)100% (Jun 23, 6:00 AM)30.45 "Hg (Jun 23, 6:00 AM)
Low45 °F (Jun 27, 1:00 AM)27% (Jul 5, 1:00 PM)29.59 "Hg (Jun 23, 5:30 AM)
Average63 °F75%30.06 "Hg
* Reported Jun 22 8:00 AM — Jul 7 8:00 AM, Kaliningrad, Weather by CustomWeather, © 2015

Note: Actual official high and low records may vary slightly from our data, if they occured in-between our weather recording intervals... More about our weather records

Advertising

Kaliningrad weather history for previous 24 hours

 ConditionsComfort  
Time TempWeatherWind HumidityBarometerVisibility
8:00 AM
Tue, Jul 7
64 °FPartly sunny.15 mph68%29.95 "HgN/A
7:30 AM64 °FScattered clouds.13 mph68%29.95 "HgN/A
7:00 AM63 °FSunny.13 mph73%29.95 "Hg10 mi
6:30 AM61 °FSunny.10 mph77%29.95 "Hg10 mi
6:00 AM59 °FPassing clouds.10 mph88%29.95 "HgN/A
5:00 AM57 °FClear.8 mph88%29.95 "Hg10 mi
4:30 AM55 °FPassing clouds.8 mph94%29.95 "HgN/A
4:00 AM57 °FPassing clouds.8 mph88%29.95 "HgN/A
3:30 AM57 °FPassing clouds.8 mph88%29.95 "HgN/A
3:00 AM57 °FPassing clouds.8 mph88%29.95 "HgN/A
2:30 AM57 °FPassing clouds.8 mph88%29.98 "HgN/A
2:00 AM59 °FClear.10 mph88%29.98 "Hg10 mi
1:30 AM57 °FClear.8 mph94%29.95 "Hg10 mi
1:00 AM59 °FClear.8 mph88%29.98 "Hg10 mi
12:30 AM59 °FPassing clouds.8 mph88%29.98 "HgN/A
12:00 AM59 °FClear.8 mph88%29.98 "Hg10 mi
11:30 PM
Mon, Jul 6
61 °FClear.8 mph77%29.98 "Hg10 mi
11:00 PM61 °FPassing clouds.10 mph77%29.98 "HgN/A
10:30 PM61 °FPassing clouds.8 mph77%29.98 "HgN/A
10:00 PM61 °FScattered clouds.10 mph77%29.98 "HgN/A
9:30 PM61 °FPassing clouds.10 mph77%29.98 "HgN/A
9:00 PM63 °FPassing clouds.13 mph73%29.98 "HgN/A
8:30 PM64 °FPassing clouds.15 mph68%29.98 "HgN/A
8:00 PM64 °FPassing clouds.15 mph68%29.95 "HgN/A
7:30 PM66 °FPassing clouds.15 mph64%29.95 "HgN/A
7:00 PM66 °FPassing clouds.17 mph68%29.95 "HgN/A
6:30 PM66 °FPassing clouds.20 mph68%29.95 "HgN/A
6:00 PM68 °FScattered clouds.17 mph69%29.95 "HgN/A
5:30 PM66 °FPartly sunny.20 mph78%29.95 "HgN/A
5:00 PM66 °FPartly sunny.17 mph78%29.95 "HgN/A
4:30 PM66 °FBroken clouds.20 mph78%29.95 "HgN/A
4:00 PM66 °FMostly cloudy.20 mph78%29.95 "HgN/A
3:30 PM66 °FMore clouds than sun.13 mph83%29.92 "HgN/A
3:00 PM66 °FOvercast.15 mph88%29.92 "HgN/A
2:30 PM66 °FSprinkles. Mostly cloudy.15 mph94%29.92 "HgN/A
2:00 PM68 °FSprinkles. Mostly cloudy.10 mph100%29.89 "Hg6 mi
1:30 PM68 °FSprinkles. More clouds than sun.10 mph100%29.92 "Hg6 mi
1:00 PM70 °FSprinkles. Mostly cloudy.10 mph94%29.89 "Hg6 mi
12:30 PM70 °FSprinkles. Mostly cloudy.6 mph94%29.89 "Hg5 mi
12:00 PM70 °FSprinkles. Mostly cloudy.3 mph94%29.89 "HgN/A
11:30 AM70 °FSprinkles. Mostly cloudy.3 mph94%29.89 "HgN/A
11:00 AM70 °FSprinkles. Mostly cloudy.3 mph94%29.89 "HgN/A
10:00 AM72 °FMore clouds than sun.10 mph78%29.86 "HgN/A
9:30 AM73 °FMore clouds than sun.13 mph69%29.86 "HgN/A
9:00 AM73 °FPartly sunny.13 mph74%29.86 "HgN/A
Weather by CustomWeather, © 2015

See weather overviewHow to use our weather pages